EW1857 Weather Reports


time (UTC)temp
C
wind
direction
speed
KPH
gust
KPH
rain 1hr
cm
rain 24hr
cm
rain mn
cm
humidity
%
barometer
mb
20260503021423 7 0.0 0.0 0.00 0.00 0.00 72 1013.3
20260503020926 7 0.0 0.0 0.00 0.00 0.00 72 1013.5
20260503020423 7 0.0 0.0 0.00 0.00 0.00 72 1013.6
20260503015924 7 0.0 0.0 0.00 0.00 0.00 72 1013.6
20260503014918 7 0.0 0.0 0.00 0.00 0.00 72 1013.2
20260503014426 7 0.0 0.0 0.00 0.00 0.00 72 1013.3
20260503013416 8 0.0 0.0 0.00 0.00 0.00 72 1013.3
20260503012422 8 0.0 0.0 0.00 0.00 0.00 72 1013.3
20260503011922 8 0.0 0.0 0.00 0.00 0.00 72 1013.3
20260503011425 8 0.0 0.0 0.00 0.00 0.00 72 1013.3
20260503010926 8 0.0 0.0 0.00 0.00 0.00 71 1013.5
20260503010422 8 0.0 0.0 0.00 0.00 0.00 71 1013.5
20260503005927 8 0.0 0.0 0.00 0.00 0.00 71 1013.5
20260503004619 8 0.0 0.0 0.00 0.00 0.00 71 1013.4
20260503003625 8 0.0 0.0 0.00 0.00 0.00 71 1013.4
20260503002917 8 0.0 0.0 0.00 0.00 0.00 70 1013.5
20260503001826 8 0.0 0.0 0.00 0.00 0.00 70 1013.5
20260503000824 9 0.0 0.0 0.00 0.00 0.00 70 1014.0
20260502235917 9 0.0 0.0 0.00 0.00 0.00 70 1014.0
20260502234921 9 0.0 0.0 0.00 0.00 0.00 69 1013.9
20260502234422 9 0.0 0.0 0.00 0.00 0.00 69 1013.9
20260502233321 9 0.0 0.0 0.00 0.00 0.00 68 1013.9
20260502232717 9 0.0 0.0 0.00 0.00 0.00 68 1014.0
20260502231724 10 0.0 0.0 0.00 0.00 0.00 69 1014.0
20260502230425 10 0.0 0.0 0.00 0.00 0.00 67 1014.1
20260502225926 10 0.0 0.0 0.00 0.00 0.00 68 1014.1
20260502225423 10 0.0 0.0 0.00 0.00 0.00 68 1014.1
20260502224924 10 0.0 0.0 0.00 0.00 0.00 68 1014.3
20260502224218 10 0.0 0.0 0.00 0.00 0.00 67 1014.3
20260502222916 10 0.0 0.0 0.00 0.00 0.00 66 1014.4
20260502221923 10 0.0 0.0 0.00 0.00 0.00 66 1014.4
20260502220924 11 0.0 0.0 0.00 0.00 0.00 66 1014.5
20260502215917 11 0.0 0.0 0.00 0.00 0.00 65 1014.5
20260502214920 11 0.0 0.0 0.00 0.00 0.00 65 1014.4
20260502214430 11 0.0 0.0 0.00 0.00 0.00 65 1014.4
20260502213415 11 0.0 0.0 0.00 0.00 0.00 65 1014.4
20260502212416 11 0.0 0.0 0.00 0.00 0.00 64 1014.5
20260502211319 11 0.0 0.0 0.00 0.00 0.00 64 1014.5
20260502210420 12 0.0 0.0 0.00 0.00 0.00 64 1014.5
20260502205923 12 0.0 0.0 0.00 0.00 0.00 63 1014.5
20260502205425 12 0.0 0.0 0.00 0.00 0.00 62 1014.4
20260502204925 12 0.0 0.0 0.00 0.00 0.00 62 1014.9
20260502203918 12 0.0 0.0 0.00 0.00 0.00 61 1014.9
20260502203424 12 0.0 0.0 0.00 0.00 0.00 61 1014.9
20260502202923 12 0.0 0.0 0.00 0.00 0.00 61 1014.7
20260502202424 12 0.0 0.0 0.00 0.00 0.00 61 1014.6
20260502201725 12 0.0 0.0 0.00 0.00 0.00 61 1014.6
20260502200718 13 0.0 0.0 0.00 0.00 0.00 60 1014.6
20260502195924 13 0.0 0.0 0.00 0.00 0.00 57 1014.6
20260502194916 13 0.0 0.0 0.00 0.00 0.00 57 1014.6
20260502193921 13 0.0 0.0 0.00 0.00 0.00 56 1014.6
20260502193425 13 0.0 0.0 0.00 0.00 0.00 56 1014.6
20260502192925 14 0.0 0.0 0.00 0.00 0.00 56 1014.6
20260502191920 14 0.0 0.0 0.00 0.00 0.00 55 1014.6
20260502190518 15 0.0 0.0 0.00 0.00 0.00 54 1014.3
20260502185416 15 0.0 0.0 0.00 0.00 0.00 52 1014.3
20260502184925 15 0.0 0.0 0.00 0.00 0.00 51 1014.0
20260502183917 15 0.0 0.0 0.00 0.00 0.00 49 1013.9
20260502182919 16 0.0 0.0 0.00 0.00 0.00 48 1013.9
20260502182025 16 0.0 0.0 0.00 0.00 0.00 46 1013.9
20260502181022 17 0.0 0.0 0.00 0.00 0.00 43 1014.0
20260502170425 19 0.0 0.0 0.00 0.00 0.00 35 1013.8
20260502163420 20 0.0 0.0 0.00 0.00 0.00 34 1013.9
20260502162925 20 0.0 0.0 0.00 0.00 0.00 34 1014.4
20260502161920 20 0.0 0.0 0.00 0.00 0.00 34 1014.4
20260502160924 20 0.0 0.0 0.00 0.00 0.00 34 1014.4
20260502151417 20 0.0 0.0 0.00 0.00 0.00 33 1014.7
20260502150521 21 0.0 0.0 0.00 0.00 0.00 33 1014.8
20260502130423 22 0.0 0.0 0.00 0.00 0.00 34 1016.6
20260502123417 22 0.0 0.0 0.00 0.00 0.00 34 1016.9
20260502122426 22 0.0 0.0 0.00 0.00 0.00 34 1017.2
20260502121923 22 0.0 0.0 0.00 0.00 0.00 33 1017.2
20260502121423 22 0.0 0.0 0.00 0.00 0.00 34 1017.2
20260502120419 23 0.0 0.0 0.00 0.00 0.00 33 1017.3
20260502115924 23 0.0 0.0 0.00 0.00 0.00 33 1017.3
20260502115426 23 0.0 0.0 0.00 0.00 0.00 34 1017.3
20260502114923 23 0.0 0.0 0.00 0.00 0.00 35 1017.6
20260502113919 23 0.0 0.0 0.00 0.00 0.00 33 1017.6
20260502113424 23 0.0 0.0 0.00 0.00 0.00 34 1017.6
20260502112925 23 0.0 0.0 0.00 0.00 0.00 32 1017.9
20260502111919 23 0.0 0.0 0.00 0.00 0.00 34 1017.9
20260502111417 23 0.0 0.0 0.00 0.00 0.00 34 1017.9
20260502110927 23 0.0 0.0 0.00 0.00 0.00 34 1018.1
20260502105926 23 0.0 0.0 0.00 0.00 0.00 35 1018.1
20260502105423 23 0.0 0.0 0.00 0.00 0.00 37 1018.1
20260502104324 23 0.0 0.0 0.00 0.00 0.00 34 1018.5
20260502103323 22 0.0 0.0 0.00 0.00 0.00 35 1018.5
20260502102222 22 0.0 0.0 0.00 0.00 0.00 35 1018.8
20260502101124 23 0.0 0.0 0.00 0.00 0.00 34 1018.9
20260502100426 23 0.0 0.0 0.00 0.00 0.00 35 1019.0
20260502090918 22 0.0 0.0 0.00 0.00 0.00 38 1019.7
20260502090424 22 0.0 0.0 0.00 0.00 0.00 38 1019.7
20260502071425 16 0.0 0.0 0.00 0.00 0.00 58 1019.9
20260502070526 15 0.0 0.0 0.00 0.00 0.00 60 1020.1
20260502065422 14 0.0 0.0 0.00 0.00 0.00 62 1020.1
20260502064925 14 0.0 0.0 0.00 0.00 0.00 62 1020.3
20260502063916 13 0.0 0.0 0.00 0.00 0.00 63 1020.3
20260502062916 12 0.0 0.0 0.00 0.00 0.00 64 1020.4
20260502062424 12 0.0 0.0 0.00 0.00 0.00 65 1020.4
20260502061925 12 0.0 0.0 0.00 0.00 0.00 65 1020.3
20260502061426 11 0.0 0.0 0.00 0.00 0.00 66 1020.3
20260502060916 11 0.0 0.0 0.00 0.00 0.00 67 1020.4
20260502060424 11 0.0 0.0 0.00 0.00 0.00 68 1020.4
20260502055924 10 0.0 0.0 0.00 0.00 0.00 69 1020.4
20260502055424 10 0.0 0.0 0.00 0.00 0.00 69 1020.4
20260502054420 10 0.0 0.0 0.00 0.00 0.00 70 1020.1
20260502053924 9 0.0 0.0 0.00 0.00 0.00 70 1020.1
20260502052922 9 0.0 0.0 0.00 0.00 0.00 71 1019.6
20260502052426 8 0.0 0.0 0.00 0.00 0.00 71 1019.6
20260502051416 8 0.0 0.0 0.00 0.00 0.00 72 1019.5
20260502050418 8 0.0 0.0 0.00 0.00 0.00 72 1019.7
20260502045927 7 0.0 0.0 0.00 0.00 0.00 72 1019.7
20260502045424 7 0.0 0.0 0.00 0.00 0.00 72 1019.7
20260502044417 7 0.0 0.0 0.00 0.00 0.00 72 1019.1
20260502043925 7 0.0 0.0 0.00 0.00 0.00 73 1019.1
20260502042917 7 0.0 0.0 0.00 0.00 0.00 73 1019.5
20260502041919 6 0.0 0.0 0.00 0.00 0.00 73 1019.5
20260502040520 6 0.0 0.0 0.00 0.00 0.00 73 1019.3
20260502035421 6 0.0 0.0 0.00 0.00 0.00 73 1019.4
20260502034926 6 0.0 0.0 0.00 0.00 0.00 73 1019.4
20260502033921 6 0.0 0.0 0.00 0.00 0.00 73 1019.4
20260502032922 6 0.0 0.0 0.00 0.00 0.00 73 1019.4
20260502032426 6 0.0 0.0 0.00 0.00 0.00 73 1019.4
20260502031419 6 0.0 0.0 0.00 0.00 0.00 73 1019.4
20260502030926 6 0.0 0.0 0.00 0.00 0.00 73 1019.2
20260502025918 7 0.0 0.0 0.00 0.00 0.00 73 1019.2
20260502025425 7 0.0 0.0 0.00 0.00 0.00 73 1019.2
20260502024925 7 0.0 0.0 0.00 0.00 0.00 73 1019.6
20260502023921 7 0.0 0.0 0.00 0.00 0.00 73 1019.6
20260502023429 7 0.0 0.0 0.00 0.00 0.00 73 1019.6
20260502022925 7 0.0 0.0 0.00 0.00 0.00 73 1019.5
20260502021916 7 0.0 0.0 0.00 0.00 0.00 73 1019.5